Weather in Glazovka

Russia / Primorsky Krai     45°18′16″N   133°30′41″E
temp.,
°C
wind,
m/s
gust,
m/s
humid.,
%
clouds,
%
prec.,
mm/h
press.,
hPa
HPBL,
m
5 december, sun
sun501:00−21s239614 0.0 102945
04:00−19sse24905 0.0 102864
07:00−18sse24895 0.0 102867
10:00−14sse36775 0.0 1028149
13:00−7sse36630 0.0 1026282
16:00−5sse27740 0.0 1024258
19:00−11se22885 0.0 102321
22:00−9se35855 0.0 102254
6 december, mon
mon601:00−8sse24895 0.0 102257
04:00−8sse36905 0.0 102178
07:00−8sse249415 0.0 102157
10:00−4s289478 0.0 1021185
13:00+2sw4138899 0.0 1020619
16:00+1wsw3108981 0.0 1022452
19:00−6w26936 0.0 1025101
22:00−10s119789 0.0 102810
7 december, tue
tue701:00−12s219868 0.0 103015
04:00−13s229868 0.0 103129
07:00−13s229854 0.0 103232
10:00−9sse11895 0.0 103244
13:00−3ssw12745 0.0 1031272
16:00−3ssw12813 0.0 103091
19:00−10se11935 0.0 103110
22:00−11se11935 0.0 103111
8 december, wed
wed801:00−12sse11935 0.0 103110
04:00−12sse11955 0.0 103210
07:00−13s119628 0.0 103312
10:00−9s11899 0.0 103443
13:00−3sw11765 0.0 1033219
16:00−3w11845 0.0 103326
19:00−10se11965 0.0 103410
22:00−11ese119625 0.0 103410
9 december, thu
thu901:00−11se119623 0.0 103310
04:00−12s11965 0.0 103210
07:00−11se2294100 0.0 103021
10:00−6sse2283100 0.0 103054
13:000sse2572100 0.0 1028164
16:000sse2481100 0.0 1026107
19:00−3se2286100 0.0 102630
22:00−3sse2387100 0.0 102644